Eastsound, WA
on Thursday, January 17, 2013

Thursday
Previous Day Next Day
Daily Summary
 ActualAverage (KBLI)Record (KBLI)
Temperature
Mean Temperature °F 39°F  
Max Temperature 41°F 46°F 59°F (1977)
Min Temperature 32°F 33°F 7°F (1950)
Degree Days
Heating Degree Days 28 26  
Month to date heating degree days 448  
Cooling Degree Days 0 0  
Month to date cooling degree days 0  
Year to date cooling degree days 0  
Moisture
Dew Point 32°F   
Average Humidity 88    
Maximum Humidity 100    
Minimum Humidity 70    
Precipitation
Precipitation 0.00 in 0.17 in 1.45 in (2005)
Month to date precipitation 2.63  
Year to date precipitation 2.63  
Wind
Wind Speed 2 mph   
Max Wind Speed 6 mph   
Max Gust Speed mph   
Visibility 9 miles   
Events Fog   

Key: T is trace of precipitation, MM is missing value
Source: NWS Daily Summary
Time(PST)TemperatureDew PointHumidity Pressure Visibility Wind DirectionWind SpeedGust SpeedPrecipitationEvents Conditions
12:15 AM 37.4°F 32.0°F 81% 30.53 in 10.0 miles North 4.6 mph - N/A   Clear
12:55 AM 37.4°F 32.0°F 81% 30.53 in 10.0 miles Calm Calm - N/A   Clear
1:15 AM 37.4°F 32.0°F 81% 30.53 in 10.0 miles North 4.6 mph - N/A   Clear
1:35 AM 37.4°F 32.0°F 81% 30.52 in 10.0 miles NNE 3.5 mph - N/A   Clear
1:55 AM 37.4°F 32.0°F 81% 30.52 in 10.0 miles NNE 4.6 mph - N/A   Clear
2:15 AM 37.4°F 32.0°F 81% 30.51 in 10.0 miles North 3.5 mph - N/A   Clear
2:35 AM 37.4°F 32.0°F 81% 30.51 in 10.0 miles Calm Calm - N/A   Clear
2:55 AM 37.4°F 32.0°F 81% 30.50 in 10.0 miles Calm Calm - N/A   Clear
3:15 AM 37.4°F 32.0°F 81% 30.50 in 10.0 miles Calm Calm - N/A   Clear
3:35 AM 35.6°F 32.0°F 87% 30.48 in 10.0 miles NNE 3.5 mph - N/A   Clear
3:55 AM 35.6°F 32.0°F 87% 30.49 in 10.0 miles NNE 3.5 mph - N/A   Clear
4:15 AM 35.6°F 32.0°F 87% 30.48 in 10.0 miles Calm Calm - N/A   Clear
4:35 AM 33.8°F 32.0°F 93% 30.47 in 10.0 miles Calm Calm - N/A   Clear
4:55 AM 32.0°F 32.0°F 100% 30.47 in 10.0 miles Calm Calm - N/A   Clear
5:15 AM 32.0°F 30.2°F 93% 30.46 in 10.0 miles Calm Calm - N/A   Clear
5:35 AM 32.0°F 30.2°F 93% 30.46 in 10.0 miles Calm Calm - N/A   Clear
5:55 AM 32.0°F 30.2°F 93% 30.45 in 10.0 miles Calm Calm - N/A   Clear
6:15 AM 32.0°F 30.2°F 93% 30.45 in 10.0 miles Calm Calm - N/A   Clear
6:35 AM 32.0°F 32.0°F 100% 30.45 in 10.0 miles Calm Calm - N/A   Clear
7:15 AM 32.0°F 32.0°F 100% 30.44 in 9.0 miles Calm Calm - N/A   Clear
7:55 AM 37.4°F 32.0°F 81% 30.44 in 10.0 miles Calm Calm - N/A   Clear
8:15 AM 35.6°F 32.0°F 87% 30.44 in 10.0 miles Calm Calm - N/A   Clear
8:35 AM 35.6°F 32.0°F 87% 30.45 in 10.0 miles Calm Calm - N/A   Clear
8:55 AM 37.4°F 32.0°F 81% 30.45 in 10.0 miles Calm Calm - N/A   Clear
9:15 AM 37.4°F 32.0°F 81% 30.45 in 10.0 miles Calm Calm - N/A   Clear
9:35 AM 37.4°F 32.0°F 81% 30.44 in 10.0 miles Calm Calm - N/A   Clear
9:55 AM 37.4°F 32.0°F 81% 30.44 in 10.0 miles Calm Calm - N/A   Clear
10:15 AM 39.2°F 32.0°F 75% 30.44 in 10.0 miles Calm Calm - N/A   Clear
10:35 AM 39.2°F 32.0°F 75% 30.44 in 10.0 miles Calm Calm - N/A   Clear
10:55 AM 39.2°F 33.8°F 81% 30.43 in 10.0 miles Calm Calm - N/A   Clear
11:15 AM 39.2°F 33.8°F 81% 30.42 in 10.0 miles Calm Calm - N/A   Clear
11:35 AM 41.0°F 33.8°F 76% 30.41 in 10.0 miles Calm Calm - N/A   Clear
11:55 AM 39.2°F 33.8°F 81% 30.42 in 10.0 miles NNE 5.8 mph - N/A   Clear
12:15 PM 39.2°F 33.8°F 81% 30.41 in 10.0 miles NNE 3.5 mph - N/A   Clear
12:35 PM 39.2°F 33.8°F 81% 30.40 in 10.0 miles NE 3.5 mph - N/A   Clear
12:55 PM 39.2°F 33.8°F 81% 30.39 in 10.0 miles Calm Calm - N/A   Clear
1:15 PM 39.2°F 33.8°F 81% 30.38 in 10.0 miles ENE 5.8 mph - N/A   Clear
1:35 PM 39.2°F 33.8°F 81% 30.36 in 10.0 miles NNW 3.5 mph - N/A   Clear
1:55 PM 41.0°F 32.0°F 70% 30.35 in 10.0 miles ENE 4.6 mph - N/A   Clear
2:15 PM 41.0°F 33.8°F 76% 30.34 in 10.0 miles ENE 3.5 mph - N/A   Clear
2:35 PM 39.2°F 33.8°F 81% 30.33 in 10.0 miles Calm Calm - N/A   Clear
2:55 PM 39.2°F 33.8°F 81% 30.33 in 10.0 miles Calm Calm - N/A   Clear
3:15 PM 39.2°F 33.8°F 81% 30.32 in 10.0 miles Calm Calm - N/A   Clear
3:35 PM 39.2°F 33.8°F 81% 30.31 in 10.0 miles Calm Calm - N/A   Clear
3:55 PM 39.2°F 33.8°F 81% 30.31 in 10.0 miles Calm Calm - N/A   Clear
4:15 PM 37.4°F 32.0°F 81% 30.31 in 8.0 miles Calm Calm - N/A   Clear
4:55 PM 35.6°F 32.0°F 87% 30.31 in 6.0 miles Calm Calm - N/A   Clear
5:15 PM 33.8°F 32.0°F 93% 30.31 in 9.0 miles Calm Calm - N/A   Clear
5:35 PM 32.0°F 32.0°F 100% 30.31 in 10.0 miles Calm Calm - N/A   Clear
5:55 PM 32.0°F 32.0°F 100% 30.31 in 10.0 miles Calm Calm - N/A   Clear
6:15 PM 32.0°F 32.0°F 100% 30.30 in 9.0 miles Calm Calm - N/A   Clear
6:35 PM 32.0°F 32.0°F 100% 30.30 in 8.0 miles Calm Calm - N/A   Clear
6:55 PM 32.0°F 32.0°F 100% 30.30 in 8.0 miles Calm Calm - N/A   Clear
7:15 PM 32.0°F 32.0°F 100% 30.31 in 6.0 miles Calm Calm - N/A   Clear
7:35 PM 32.0°F 32.0°F 100% 30.31 in 7.0 miles Calm Calm - N/A   Clear
7:55 PM 32.0°F 32.0°F 100% 30.31 in 5.0 miles Calm Calm - N/A   Clear
9:15 PM 32.0°F 32.0°F 100% 30.30 in 3.0 miles Calm Calm - N/A   Clear
9:55 PM 32.0°F 32.0°F 100% 30.30 in 3.0 miles Calm Calm - N/A   Clear
10:15 PM 32.0°F 32.0°F 100% 30.29 in 4.0 miles Calm Calm - N/A   Partly Cloudy
10:35 PM 32.0°F 32.0°F 100% 30.29 in 3.0 miles Calm Calm - N/A   Clear
10:55 PM 32.0°F 32.0°F 100% 30.29 in 3.0 miles Calm Calm - N/A   Clear
11:15 PM 32.0°F 32.0°F 100% 30.29 in 3.0 miles Calm Calm - N/A   Mostly Cloudy
11:55 PM 32.0°F 32.0°F 100% 30.28 in 0.2 miles Calm Calm - N/A Fog Fog
Moon Phase
Jan. 17 Jan. 18 Jan. 26 Feb. 03 Feb. 10
Sunrise:07:57 AM (PST) Moon Rise:10:29 AM (PST)
Sunset:04:46 PM (PST) Moon Set:No Moon Set/

Copyright © 2014 The Weather Underground, Inc.